User: anonymous   Login
Location: Moscow
(55.7500°N, 37.5830°E)
Time: 18:02:49
(UTC+03:00)
Language:

FENGYUN 1C DEB - Orbit

View from above orbital plane
View from above orbital plane
View from above satellite
View from above satellite

Ground track
Ground track

The orbit data is extracted from the following two-line orbital elements,

1 31384U 99025BSQ 22183.69091744  .00002068  00000-0  99188-3 0  9994
2 31384  98.4940 267.7892 0495719 218.0944 301.3667 13.70498797756952
Epoch (UTC): 02 July 2022 16:34:55
Eccentricity: 0.0495719
inclination: 98.4940°
perigee height: 632 km
apogee height: 1363 km
right ascension of ascending node: 267.7892°
argument of perigee: 218.0944°
revolutions per day: 13.70498797
mean anomaly at epoch: 301.3667°
orbit number at epoch: 75695

The dashed part of the orbit path shows where the satellite is in the earth's shadow,  

DLR